This is the latest recevied weather packets stored in our database for station/object JA0ZJX-13. If no packets are shown the sender has not sent any weather packets the latest 1 day(s).
| Time | Temp. | Humidity | Pressure | Rain* | Wind** | Luminosity | Snow |
|---|---|---|---|---|---|---|---|
| 1836274597 | 23.33° C | 76% | 1013.1 hPa | 0.51 mm | 4.02 m/s, 190° | 462 W/m² | - |
| 1836274435 | 23.89° C | 75% | 1012.5 hPa | 0 mm | 3.58 m/s, 113° | 436 W/m² | - |
| 1836273986 | 23.33° C | 75% | 1013.3 hPa | 0.51 mm | 3.13 m/s, 192° | 376 W/m² | - |
| 1778019207 | 15.56° C | 65% | 1021.7 hPa | 0 mm | 3.58 m/s, 227° | 183 W/m² | - |
| 1778018616 | 15° C | 66% | 1021.9 hPa | 0 mm | 2.68 m/s, 209° | 355 W/m² | - |
| 1778018010 | 14.44° C | 66% | 1021.9 hPa | 0 mm | 1.34 m/s, 283° | 341 W/m² | - |
| 1778017420 | 13.89° C | 67% | 1022 hPa | 0 mm | 1.79 m/s, 219° | 348 W/m² | - |
| 1778016808 | 13.33° C | 68% | 1021.9 hPa | 0 mm | 4.02 m/s, 226° | 292 W/m² | - |
| 1778016217 | 12.78° C | 70% | 1022 hPa | 0 mm | 2.24 m/s, 205° | 165 W/m² | - |
| 1778015611 | 12.78° C | 69% | 1022 hPa | 0 mm | 1.79 m/s, 205° | 63 W/m² | - |
| 1778015020 | 12.78° C | 68% | 1022.1 hPa | 0 mm | 2.68 m/s, 218° | 67 W/m² | - |
| 1778014408 | 13.33° C | 67% | 1022.2 hPa | 0 mm | 3.58 m/s, 148° | 54 W/m² | - |
| 1778013821 | 13.33° C | 67% | 1022 hPa | 0 mm | 3.13 m/s, 153° | 76 W/m² | - |
| 1778013209 | 13.33° C | 67% | 1022.1 hPa | 0 mm | 3.13 m/s, 173° | 40 W/m² | - |
| 1778012619 | 12.78° C | 68% | 1022.1 hPa | 0 mm | 2.68 m/s, 191° | 28 W/m² | - |
| 1778012006 | 12.22° C | 67% | 1022.2 hPa | 0 mm | 2.24 m/s, 166° | 18 W/m² | - |
| 1778011418 | 12.78° C | 67% | 1022.1 hPa | 0 mm | 4.47 m/s, 212° | 9 W/m² | - |
| 1778010806 | 12.22° C | 67% | 1022.1 hPa | 0 mm | 1.79 m/s, 167° | 0 W/m² | - |
| 1778010215 | 12.22° C | 67% | 1022.3 hPa | 0 mm | 2.24 m/s, 157° | 0 W/m² | - |
| 1778009624 | 12.78° C | 66% | 1022.3 hPa | 0 mm | 1.79 m/s, 153° | 0 W/m² | - |
| 1778009018 | 12.22° C | 66% | 1022.3 hPa | 0 mm | 2.24 m/s, 141° | 0 W/m² | - |
| 1778008407 | 12.22° C | 66% | 1022.4 hPa | 0 mm | 2.24 m/s, 168° | 0 W/m² | - |
| 1778007816 | 12.22° C | 66% | 1022.5 hPa | 0 mm | 3.13 m/s, 152° | 0 W/m² | - |
| 1778007208 | 11.67° C | 67% | 1022.4 hPa | 0 mm | 0.89 m/s, 195° | 0 W/m² | - |
| 1778006618 | 12.22° C | 66% | 1022.4 hPa | 0 mm | 4.02 m/s, 205° | 0 W/m² | - |
* Rain latest hour (hover to see other rain measurements)
** Current wind speed in m/s (hover to see current wind gust speed)